Dublin, Ireland

3:28 AM IST on September 27, 2016 (GMT +0100)
Dublin International

Weather History for EIDW - February, 2014

Change the Weather History Date:

Tuesday, February 4, 2014

  Actual Average Record
Temperature  
Mean Temperature 38 °F -  
Max Temperature 44 °F 46 °F 59 °F (2004)
Min Temperature 33 °F 35 °F 24 °F (2015)
Degree Days  
Heating Degree Days 26    
Moisture  
Dew Point 36 °F    
Average Humidity 81    
Maximum Humidity 93    
Minimum Humidity 51    
Precipitation  
Precipitation 0.02 in - - ()
Sea Level Pressure  
Sea Level Pressure 29.06 in    
Wind  
Wind Speed 13 mph ()    
Max Wind Speed 40 mph    
Max Gust Speed 55 mph    
Visibility 7.7 miles    
Events Rain , Hail    
Averages and records for this station are not official NWS values.
T = Trace of Precipitation, MM = Missing Value Source: Averaged Metar Reports

Daily Weather History Graph

Daily Weather History Graph

Search for Another Location

Airport or City:

Trip Planner

Search our weather history database for the weather conditions in past years. The results will help you decide how hot, cold, wet, or windy it might be!

Date:

Astronomy

Feb. 04, 2014 Rise Set
Actual Time 8:05 AM GMT 5:13 PM GMT
Civil Twilight 7:27 AM GMT 5:51 PM GMT
Nautical Twilight 6:45 AM GMT 6:33 PM GMT
Astronomical Twilight 6:05 AM GMT 7:13 PM GMT
Moon 9:44 AM GMT (2/4) 11:49 PM GMT (2/4)
Length of Visible Light 10h 24m
Length of Day
9h 08m
Waxing Crescent, 27% of the Moon is Illuminated
Feb 4
Waxing Crescent
Feb 6
First Quarter
Feb 14
Full
Feb 22
Last Quarter
Mar 1
New

Hourly Weather History & Observations

Time (GMT) Temp. Windchill Dew Point Humidity Pressure Visibility Wind Dir Wind Speed Gust Speed Precip Events Conditions
12:00 AM 39 °F - 34 °F 77% 29.26 in 16 mi SE 6.7 mph - -   Partly Cloudy
12:00 AM 39.2 °F 34.2 °F 35.6 °F 87% 29.24 in 6.2 mi SE 6.9 mph - N/A   Mostly Cloudy
12:30 AM 41.0 °F 35.8 °F 33.8 °F 76% 29.24 in 6.2 mi SE 8.1 mph - N/A   Mostly Cloudy
1:00 AM 39 °F - 34 °F 76% 29.25 in 16 mi SSE 8.9 mph - -   Scattered Clouds
1:00 AM 39.2 °F 33.6 °F 33.8 °F 81% 29.24 in 6.2 mi SSE 8.1 mph - N/A   Mostly Cloudy
1:30 AM 39.2 °F 33.0 °F 33.8 °F 81% 29.24 in 6.2 mi SSE 9.2 mph - N/A   Mostly Cloudy
2:00 AM 39 °F - 35 °F 78% 29.25 in 16 mi SSE 8.9 mph - -   Scattered Clouds
2:00 AM 39.2 °F 33.0 °F 33.8 °F 81% 29.24 in 6.2 mi SSE 9.2 mph - N/A   Mostly Cloudy
2:30 AM 39.2 °F 32.5 °F 35.6 °F 87% 29.21 in 6.2 mi SE 10.4 mph - N/A   Mostly Cloudy
3:00 AM 38 °F - 34 °F 80% 29.24 in 16 mi SSE 6.7 mph - -   Partly Cloudy
3:00 AM 39.2 °F 34.2 °F 33.8 °F 81% 29.21 in 6.2 mi SSE 6.9 mph - N/A   Scattered Clouds
4:00 AM 37 °F - 34 °F 84% 29.24 in 16 mi SSW 6.7 mph - -   Scattered Clouds
5:00 AM 36 °F - 33 °F 87% 29.24 in 16 mi SSW 6.7 mph - -   Scattered Clouds
5:00 AM 35.6 °F 29.9 °F 33.8 °F 93% 29.21 in 6.2 mi SSW 6.9 mph - N/A   Partly Cloudy
5:30 AM 35.6 °F 30.7 °F 33.8 °F 93% 29.21 in 6.2 mi SW 5.8 mph - N/A   Partly Cloudy
6:00 AM 36 °F - 33 °F 87% 29.24 in 16 mi SSW 8.9 mph - -   Scattered Clouds
6:00 AM 35.6 °F 28.6 °F 33.8 °F 93% 29.21 in 6.2 mi SSW 9.2 mph - N/A   Partly Cloudy
6:30 AM 35.6 °F 29.2 °F 33.8 °F 93% 29.21 in 6.2 mi SW 8.1 mph - N/A   Partly Cloudy
7:00 AM 35 °F - 33 °F 90% 29.24 in 16 mi SSW 8.9 mph - -   Scattered Clouds
7:00 AM 35.6 °F 28.6 °F 33.8 °F 93% 29.21 in 6.2 mi SSW 9.2 mph - N/A   Partly Cloudy
7:30 AM 35.6 °F 31.7 °F 33.8 °F 93% 29.21 in 6.2 mi SSW 4.6 mph - N/A   Partly Cloudy
8:00 AM 34 °F - 32 °F 91% 29.24 in 25 mi SSW 6.7 mph - -   Scattered Clouds
8:00 AM 33.8 °F 27.7 °F 32.0 °F 93% 29.21 in 6.2 mi South 6.9 mph - N/A   Partly Cloudy
8:30 AM 35.6 °F 30.7 °F 32.0 °F 87% 29.21 in 6.2 mi South 5.8 mph - N/A   Partly Cloudy
9:00 AM 39 °F - 32 °F 69% 29.24 in 25 mi SSE 4.5 mph - -   Scattered Clouds
9:00 AM 37.4 °F 34.9 °F 32.0 °F 81% 29.21 in 6.2 mi Variable 3.5 mph - N/A   Partly Cloudy
9:30 AM 39.2 °F 32.5 °F 32.0 °F 75% 29.21 in 6.2 mi South 10.4 mph - N/A   Partly Cloudy
10:00 AM 40 °F - 34 °F 70% 29.24 in 25 mi South 13.4 mph - -   Scattered Clouds
10:00 AM 39.2 °F 32.0 °F 33.8 °F 81% 29.21 in 6.2 mi South 11.5 mph - N/A   Partly Cloudy
10:30 AM 41.0 °F 35.2 °F 33.8 °F 76% 29.21 in 6.2 mi South 9.2 mph - N/A   Partly Cloudy
11:00 AM 42 °F - 33 °F 61% 29.23 in 25 mi South 13.4 mph - -   Scattered Clouds
11:00 AM 42.8 °F 36.2 °F 33.8 °F 70% 29.21 in 6.2 mi South 12.7 mph - N/A   Partly Cloudy
11:30 AM 42.8 °F 36.2 °F 33.8 °F 70% 29.21 in 6.2 mi South 12.7 mph - N/A   Partly Cloudy
12:00 PM 44 °F - 32 °F 51% 29.21 in 25 mi SE 13.4 mph - -   Scattered Clouds
12:00 PM 44.6 °F 38.1 °F 33.8 °F 66% 29.18 in 6.2 mi SE 13.8 mph - N/A   Partly Cloudy
12:30 PM 44.6 °F 38.1 °F 33.8 °F 66% 29.18 in 6.2 mi ESE 13.8 mph - N/A   Scattered Clouds
1:00 PM 44 °F - 35 °F 59% 29.18 in 25 mi SE 13.4 mph - -   Scattered Clouds
1:00 PM 44.6 °F 37.8 °F 33.8 °F 66% 29.15 in 6.2 mi SE 15.0 mph - N/A   Scattered Clouds
1:30 PM 44.6 °F 38.1 °F 33.8 °F 66% 29.15 in 6.2 mi SE 13.8 mph - N/A   Mostly Cloudy
2:00 PM 43 °F - 35 °F 63% 29.13 in 25 mi SE 17.9 mph - -   Scattered Clouds
2:00 PM 42.8 °F 34.5 °F 33.8 °F 70% 29.12 in 6.2 mi SE 18.4 mph - N/A   Mostly Cloudy
2:26 PM 42.8 °F 34.5 °F 33.8 °F 70% 29.12 in 6.2 mi SE 18.4 mph - N/A   Mostly Cloudy
3:00 PM 42 °F - 37 °F 78% 29.08 in 19 mi SSE 17.9 mph - - Hail Light Hail Showers
3:00 PM 41.0 °F 32.8 °F 37.4 °F 87% 29.06 in 6.2 mi SSE 16.1 mph - N/A   Mostly Cloudy
3:30 PM 42.8 °F 33.3 °F 37.4 °F 81% 29.03 in 6.2 mi SE 24.2 mph - N/A   Mostly Cloudy
4:00 PM 44 °F - 38 °F 73% 29.03 in 19 mi SE 22.4 mph - -   Mostly Cloudy
4:00 PM 44.6 °F 36.6 °F 37.4 °F 76% 29.00 in 6.2 mi SE 19.6 mph 40.3 mph N/A   Mostly Cloudy
4:30 PM 44.6 °F 35.5 °F 37.4 °F 76% 28.97 in 6.2 mi SE 25.3 mph - N/A   Mostly Cloudy
5:00 PM 44 °F - 38 °F 72% 28.96 in 19 mi SE 31.3 mph - - Rain Light Drizzle
5:00 PM 44.6 °F 34.6 °F 37.4 °F 76% 28.94 in 6.2 mi SE 31.1 mph 44.9 mph N/A   Mostly Cloudy
5:30 PM 44.6 °F 34.4 °F 37.4 °F 76% 28.91 in 6.2 mi SE 32.2 mph 44.9 mph N/A   Mostly Cloudy
6:00 PM 43 °F - 38 °F 77% 28.90 in 7 mi SE 31.3 mph - - Rain Light Rain
6:00 PM 42.8 °F 31.9 °F 37.4 °F 81% 28.88 in 6.2 mi SE 32.2 mph 47.2 mph N/A Rain Light Rain
6:30 PM 42.8 °F 31.6 °F 39.2 °F 87% 28.85 in 5.0 mi ESE 34.5 mph 51.8 mph N/A Rain Light Rain
7:00 PM 42 °F - 39 °F 86% 28.85 in 4 mi ESE 33.6 mph - - Rain Rain
7:00 PM 42.8 °F 31.8 °F 39.2 °F 87% 28.82 in 3.7 mi ESE 33.4 mph - N/A Rain Light Rain
7:30 PM 42.8 °F 31.8 °F 39.2 °F 87% 28.80 in 5.0 mi ESE 33.4 mph 46.0 mph N/A Rain Rain
8:00 PM 42 °F - 40 °F 89% 28.77 in 4 mi ESE 33.6 mph - - Rain Rain
8:00 PM 42.8 °F 31.6 °F 41.0 °F 93% 28.77 in 4.3 mi ESE 34.5 mph 49.5 mph N/A Rain Rain
8:30 PM 42.8 °F 31.4 °F 41.0 °F 93% 28.71 in 5.0 mi ESE 35.7 mph 52.9 mph N/A Rain Light Rain
9:00 PM 43 °F - 41 °F 91% 28.71 in 4 mi SE 35.8 mph - - Rain Rain
9:00 PM 42.8 °F 31.4 °F 41.0 °F 93% 28.68 in 3.7 mi ESE 35.7 mph 52.9 mph N/A Rain Rain
9:30 PM 42.8 °F 31.3 °F 41.0 °F 93% 28.65 in 3.7 mi SE 36.8 mph 51.8 mph N/A Rain Rain
10:00 PM 44 °F - 41 °F 87% 28.64 in 5 mi SE 40.3 mph - - Rain Light Rain
10:00 PM 44.6 °F 33.5 °F 41.0 °F 87% 28.62 in 5.0 mi SE 39.1 mph 54.1 mph N/A Rain Light Rain
10:30 PM 42.8 °F 31.1 °F 41.0 °F 93% 28.62 in 5.0 mi SE 38.0 mph 55.2 mph N/A Rain Light Rain
11:00 PM 44 °F - 42 °F 89% 28.61 in 5 mi SE 31.3 mph - - Rain Light Rain
11:00 PM 44.6 °F 34.6 °F 41.0 °F 87% 28.59 in 5.0 mi SE 31.1 mph 44.9 mph N/A Rain Light Rain
11:30 PM 44.6 °F 33.8 °F 41.0 °F 87% 28.59 in 5.6 mi SE 36.8 mph 51.8 mph N/A Rain Light Rain